x

Los Angeles Pier F, Ca - 9410670 (pfxc1) Weather Station

4:30 - Sat 30th Apr 2016 All times are PDT. -7 hours from GMT.

  • Wind
    2mph, 3mph gusts
  • Luft Temp 57°f
  • Sea Pressure 1009.6mb
  • Los Angeles Pier F, Ca - 9410670
  • Los Angeles Pier F, Ca - 9410670

More Historic Weather Station data

Upgrade to MSW Pro to gain access to the past 30 days of data for over 8000 Wavebouys and Weather Stations around the globe.

Join Pro

Comparision Forecast

View Surf forecast
   
Sa 04/30 4:30 2 3 mph 1009.6mb 57f
4:24 3 5 mph 1009.6mb 57f
4:18 3 5 mph 1009.7mb 57f
4:12 3 5 mph 1009.9mb 57f
4:06 5 7 mph 1009.8mb 57f
4:00 6 7 mph 1009.9mb 57f
3:54 5 7 mph 1009.9mb 57f
3:48 6 7 mph 1009.9mb 57f
3:42 5 6 mph 1009.9mb 57f
3:36 5 7 mph 1010mb 57f
3:30 5 6 mph 1010mb 57f
3:24 5 7 mph 1009.9mb 57f
3:18 7 8 mph 1009.9mb 57f
3:12 7 8 mph 1010mb 57f
3:06 7 8 mph 1010.1mb 57f
3:00 7 8 mph 1010.1mb 57f
2:54 7 8 mph 1010.2mb 57f
2:48 6 8 mph 1010.4mb 57f
2:42 7 8 mph 1010.4mb 57f
2:36 8 9 mph 1010.4mb 57f
2:30 8 10 mph 1010.5mb 57f
2:24 8 10 mph 1010.6mb 57f
2:18 8 9 mph 1010.7mb 58f
2:12 8 9 mph 1010.7mb 57f
2:06 8 10 mph 1010.7mb 57f
2:00 7 9 mph 1010.8mb 57f
1:54 7 9 mph 1010.9mb 57f
1:48 9 10 mph 1010.9mb 57f
1:42 8 10 mph 1010.9mb 58f
1:36 7 9 mph 1011mb 57f
1:30 7 10 mph 1011.1mb 57f
1:24 8 10 mph 1011.2mb 57f
1:18 6 9 mph 1011.2mb 57f
1:12 8 9 mph 1011.2mb 57f
1:06 9 10 mph 1011.2mb 58f
1:00 8 10 mph 1011.2mb 58f
12:54 10 11 mph 1011.3mb 58f
12:48 8 10 mph 1011.4mb 58f
12:42 8 10 mph 1011.6mb 58f
12:36 6 8 mph 1011.6mb 58f
12:30 6 7 mph 1011.7mb 57f
12:24 6 8 mph 1011.8mb 57f
12:18 5 6 mph 1011.9mb 57f
12:12 6 7 mph 1011.9mb 57f
12:06 6 7 mph 1012mb 57f
12:00 6 8 mph 1012mb 57f
Fr 04/29 11:54 6 8 mph 1011.8mb 57f
11:48 7 10 mph 1011.8mb 57f
11:42 7 9 mph 1011.8mb 57f
11:36 7 9 mph 1011.8mb 57f
11:30 7 9 mph 1011.8mb 57f
11:24 6 8 mph 1011.9mb 57f
11:18 6 8 mph 1012mb 57f
11:12 3 6 mph 1012mb 57f
11:06 3 5 mph 1012mb 57f
11:00 3 6 mph 1012.1mb 57f
10:54 5 6 mph 1012.2mb 57f
10:48 6 7 mph 1012.2mb -
10:42 6 8 mph 1012.3mb -
10:36 6 8 mph 1012.3mb -
10:30 7 8 mph 1012.3mb 58f
10:24 7 9 mph 1012.3mb 58f
10:18 7 8 mph 1012.5mb 58f
10:12 7 9 mph 1012.6mb 58f
10:06 6 7 mph 1012.6mb 58f
10:00 5 6 mph 1012.7mb 58f
9:54 5 6 mph 1012.6mb 58f
9:48 6 7 mph 1012.7mb 58f
9:42 6 7 mph 1012.8mb 58f
9:36 7 8 mph 1012.8mb 58f
9:30 6 8 mph 1012.8mb 58f
9:24 7 9 mph 1012.7mb 58f
9:18 8 9 mph 1012.7mb 58f
9:12 9 10 mph 1012.7mb 58f
9:06 9 10 mph 1012.8mb 58f
9:00 8 9 mph 1012.7mb 58f
8:54 8 10 mph 1012.8mb 59f
8:48 8 10 mph 1012.7mb 59f
8:42 9 10 mph 1012.7mb 59f
8:36 9 11 mph 1012.7mb 59f
8:30 9 11 mph 1012.6mb 59f
8:24 10 14 mph 1012.6mb 59f
8:18 6 9 mph 1012.6mb 59f
8:12 7 9 mph 1012.6mb 58f
8:06 7 9 mph 1012.5mb 58f
8:00  -  mph - 59f
7:54  -  mph - 59f
7:48 8 11 mph 1012.4mb -
7:42 8 11 mph 1012.4mb -
7:36 8 13 mph 1012.5mb -
7:30 8 9 mph 1012.4mb -
7:24 9 11 mph 1012.4mb -
7:18 11 15 mph 1012.3mb 59f
7:12 14 17 mph 1012.2mb 59f
7:06 9 14 mph 1012.3mb 59f
7:00  -  mph 1012.4mb 60f
6:54  -  mph 1012.4mb 60f
6:48 10 14 mph 1012.4mb -
6:42 10 16 mph 1012.4mb -
6:36 11 15 mph 1012.4mb -
6:30 10 15 mph 1012.4mb -
6:24 13 16 mph 1012.4mb -
6:18 10 14 mph 1012.6mb 62f
6:12 10 14 mph 1012.7mb 62f
6:06 11 15 mph 1012.8mb 62f
6:00  -  mph 1012.8mb 62f
5:54  -  mph 1012.8mb 63f
5:48  -  mph 1012.8mb -
5:42  -  mph 1012.8mb -
5:36  -  mph 1012.9mb -
5:30  -  mph 1012.9mb -
5:24  -  mph 1013mb -
5:18  -  mph 1013.1mb 62f
5:12  -  mph 1013.1mb 62f
5:06  -  mph 1013.1mb 62f
5:00  -  mph 1013.2mb -
4:54  -  mph 1013.3mb -
4:48  -  mph 1013.4mb -
4:42  -  mph 1013.4mb -
4:36  -  mph 1013.5mb -
4:30 15 20 mph 1013.4mb 63f
4:24 14 20 mph 1013.4mb 63f
4:18  -  mph 1013.6mb 63f
4:12  -  mph 1013.7mb 63f
4:06  -  mph 1013.8mb 64f
4:00  -  mph 1013.9mb 64f
3:54  -  mph 1014mb 64f
3:48  -  mph 1014.1mb -
3:42  -  mph 1014.2mb -
3:36  -  mph 1014.2mb -
3:30 14 17 mph 1014.2mb -
3:24 15 18 mph 1014.4mb -
3:18 15 18 mph 1014.5mb 65f
3:12 15 20 mph 1014.5mb 64f
3:06 17 20 mph 1014.5mb 64f
3:00  -  mph 1014.7mb 64f
2:54  -  mph 1014.7mb 64f
2:48 15 18 mph 1014.9mb -
2:42 15 17 mph 1014.9mb -
2:36 14 17 mph 1015mb -
2:30 14 16 mph 1015.1mb 64f
2:24 14 17 mph 1015.2mb 64f
2:18 14 16 mph 1015.3mb 64f
2:12 14 16 mph 1015.4mb 64f
2:06 14 16 mph 1015.4mb 63f
2:00 15 16 mph 1015.3mb 64f
1:54 14 15 mph 1015.3mb 64f
1:48 14 15 mph 1015.5mb 64f
1:42 14 15 mph 1015.5mb 64f
1:36 13 14 mph 1015.5mb 64f
1:30 13 14 mph 1015.7mb 64f
1:24 13 15 mph 1015.8mb 64f
1:18 13 14 mph 1015.8mb 64f
1:12 13 14 mph 1015.8mb 64f
1:06 11 14 mph 1015.8mb 64f
1:00 10 14 mph 1015.7mb 64f
12:54 11 14 mph 1015.8mb 65f
12:48 11 13 mph 1015.9mb 64f
12:42 11 13 mph 1016mb 64f
12:36 11 13 mph 1016mb 65f
12:30 11 13 mph 1016.1mb 65f
12:24 10 11 mph 1016.3mb 65f
12:18 10 13 mph 1016.4mb 65f
12:12 8 11 mph 1016.4mb 64f
12:06 8 10 mph 1016.5mb 65f
12:00 9 10 mph 1016.7mb 64f
11:54 9 11 mph 1016.5mb 62f
11:48 10 11 mph 1016.3mb 61f
11:42 10 11 mph 1016.4mb 62f
11:36 10 11 mph 1016.5mb 63f
11:30 10 11 mph 1016.7mb 64f
11:24 9 11 mph 1016.7mb 64f
11:18 9 10 mph 1016.7mb 64f
11:12 9 10 mph 1016.7mb 64f
11:06 9 10 mph 1016.6mb 63f
11:00 8 9 mph 1016.6mb 62f
10:54 8 9 mph 1016.6mb 62f
10:48 8 9 mph 1017mb 63f
10:42 7 8 mph 1017mb 62f
10:36 6 8 mph 1016.7mb 60f
10:30 7
mph
1016.8mb 60f
10:24 7
mph
1016.8mb 60f
10:18 7 8 mph 1016.6mb 60f
10:12 6 7 mph 1016.9mb 60f
10:06 6 7 mph 1016.6mb 60f
10:00 6 7 mph 1016.6mb 60f
9:54 6 7 mph 1016.6mb 61f
9:48 7
mph
1016.6mb 61f
9:42 7 8 mph 1016.4mb 61f
9:36 7 8 mph 1016.3mb 61f
9:30 7
mph
1016.5mb 62f
9:24 6 7 mph 1016.5mb 62f
9:18 6 7 mph 1016.5mb 62f
9:12 6 7 mph 1016.6mb 62f
9:06 6 7 mph 1016.5mb 61f
9:00 6 7 mph 1016.7mb 61f
8:54 6 7 mph 1016.5mb 60f
8:48 6 8 mph 1016.3mb 61f
8:42 3 7 mph 1016.5mb 62f
8:36 3 6 mph 1016.7mb 62f
8:30 3 6 mph 1016.5mb 61f
8:24 5 6 mph 1016.3mb 61f
8:18 3 6 mph 1016.4mb 62f
8:12 3 6 mph 1016.6mb 62f
8:06 5 7 mph 1016.4mb 61f
8:00 5 6 mph 1016mb 60f
7:54 5 7 mph 1016.2mb 60f
7:48 5 6 mph 1015.8mb 59f
7:42 5 6 mph 1015.8mb 59f
7:36 5 6 mph 1015.7mb 60f
7:30 3 5 mph 1015.8mb 61f
7:24 5 6 mph 1015.8mb 60f
7:18 5 6 mph 1015.7mb 60f
7:12 3 6 mph - 59f
7:06 6 7 mph - 59f
7:00 3 6 mph - 58f
6:54 5 6 mph - 58f
6:48 6 7 mph - 58f
6:42 5 6 mph - 58f
6:36 5 6 mph - 58f
6:30 5 6 mph - 58f
6:24 3 5 mph - 58f
6:18 2 5 mph - 58f
6:12 5 6 mph - 58f
6:06 6 7 mph - 58f
6:00 6 7 mph - 58f
5:54 3 6 mph - 58f
5:48 2 3 mph - 58f
5:42 2 5 mph - 58f
5:36 5 6 mph - 58f
5:30 3 5 mph - 58f
5:24 3 5 mph - 58f
5:18 3 5 mph - 58f
5:12 2 5 mph - 58f
5:06 6
mph
- 58f
5:00 7 10 mph - 58f
4:54 8 10 mph - 58f
4:48 9 11 mph - 58f
4:42 8 10 mph - 58f
4:36 9 10 mph - 58f
4:30 7 9 mph - 58f
4:24 8 10 mph - 58f
4:18 8 10 mph - 58f
4:12 8 10 mph - 58f
4:06 8 9 mph - 58f
4:00 8 9 mph - 58f
3:54 8 10 mph - 58f
3:48 8 10 mph - 58f
3:42 8 9 mph - 58f
3:36 8 9 mph - 58f
3:30 8 9 mph - 58f
3:24 8 9 mph - 58f
3:18 9 10 mph - 58f
3:12 10 13 mph - 58f
3:06 10 13 mph - 58f
3:00 11 14 mph - 58f
2:54 13 15 mph - 58f
2:48 14 15 mph - 59f
2:42 11 14 mph - 59f
2:36 13 15 mph - 59f
2:30 13 14 mph - 59f
2:24 9 11 mph - 59f
2:18 9 13 mph - 59f
2:12 10 13 mph - 59f
2:06 9 13 mph - 59f
2:00 9 11 mph - 59f
1:54 11 13 mph - 59f
1:48 11 14 mph - 59f
1:42 10 14 mph - 59f
1:36 10 13 mph - 59f
1:30 10 14 mph - 59f
1:24 10 11 mph - 59f
1:18 10 13 mph - 59f
1:12 9 11 mph - 59f
1:06 7 9 mph - 59f
1:00 7 8 mph - 59f
12:54 6 8 mph - 59f
12:48 6 7 mph - 59f
12:42 6 8 mph - 59f
12:36 3 7 mph - 59f
12:30 3 5 mph - 58f
12:24 2 3 mph - 58f
12:18 2 3 mph - 58f
12:12 2 3 mph - 58f
12:06 3
mph
- 58f
12:00 2 3 mph - 58f
Do 04/28 11:54 1 2 mph - 58f
11:48  -  1 mph - 58f
11:42 1 2 mph - 58f
11:36 2 5 mph - 58f
11:30 3 5 mph - 58f
11:24 3 5 mph - 58f
11:18 3
mph
- 58f
11:12 3
mph
- 58f
11:06 3
mph
- 58f
11:00 3 5 mph - 58f
10:54 3 5 mph - 58f
10:48 5
mph
- 58f
10:42 5 6 mph - 58f
10:36 5 6 mph - 58f
10:30 5 6 mph - 58f
10:24 3 6 mph - 58f
10:18 7 8 mph - 58f
10:12 8 9 mph - 58f
10:06 9 11 mph - 58f
10:00 7 8 mph - 58f
9:54 8 9 mph - 58f
9:48 7 9 mph - 58f
9:42 8 9 mph - 58f
9:36 7 9 mph - 58f
9:30 6 8 mph - 58f
9:24 8 11 mph - 58f
9:18 9 13 mph - 58f
9:12 10 13 mph - 58f
9:06 9 13 mph - 58f
9:00 9 13 mph - 58f
8:54 10 13 mph - 59f
8:48 8 11 mph - 58f
8:42 8 13 mph - 58f
8:36 9 13 mph - 58f
8:30 10 14 mph - 58f
8:24 13 15 mph - 58f
8:18 14 15 mph - 58f
8:12 14 15 mph - 58f
8:06 14 16 mph - 58f
8:00  -  mph - 58f
7:54  -  mph - 58f
7:18 10 13 mph - 59f
7:12 11 13 mph - 59f
7:06 11 13 mph - 60f
6:30 14 16 mph - 61f
6:24 14 16 mph - 61f
6:18  -  mph - 61f
6:12  -  mph - 61f
6:06  -  mph - 61f
6:00  -  mph - 61f
5:54  -  mph - 61f
5:48 14 16 mph - -
5:42 14 15 mph - -
5:36 14 15 mph - -
5:18 16 18 mph - 62f
5:12 17 20 mph - 61f
5:06 16 17 mph - 62f
5:00  -  mph - 62f
4:54  -  mph - 62f
4:48  -  mph - 62f
4:42  -  mph - 61f
4:36  -  mph - 62f
4:00  -  mph - 62f
3:54  -  mph - 63f
3:48  -  mph - 63f
3:42  -  mph - 63f
3:36  -  mph - 63f
3:30  -  mph - 64f
3:24  -  mph - 64f
3:18 16 21 mph - 64f
3:12 16 18 mph - 64f
3:06 15 18 mph - 64f
3:00  -  mph - 64f
2:54  -  mph - 64f
2:30 15 18 mph - 64f
2:24 15 17 mph - 65f
2:18 15 18 mph - 64f
2:12 17 20 mph - 63f
2:06 14 17 mph - 64f
2:00 15 18 mph - 65f
1:54 15 17 mph - 65f
1:48 14 17 mph - 65f
1:42 15 18 mph - 65f
1:36 15 18 mph - 64f
1:30 16 21 mph - 64f
1:24 16 21 mph - 64f
1:18 18 22 mph - 63f
1:12 17 21 mph - 64f
1:06 16 18 mph - 64f
1:00 14 16 mph - 63f
12:54 15 22 mph - 62f
12:48 18 22 mph - 63f
12:42 18 21 mph - 63f
12:36 16 20 mph - 64f
12:30 17 20 mph - 64f
12:24 16 21 mph - 64f
12:18 16 18 mph - 64f
12:12 16 18 mph - 64f
12:06 15 17 mph - 64f
12:00 15 20 mph - 63f
11:54 16 18 mph - 63f
11:48 16 18 mph - 63f
11:42 15 17 mph - 63f
11:36 15 17 mph - 63f
11:30 14 15 mph - 64f
11:24 13 14 mph - 64f
11:18 13 14 mph - 64f
11:12 11 13 mph - 64f
11:06 13 14 mph - 63f
11:00 11 14 mph - 63f
10:54 11 13 mph - 63f
10:48 11 13 mph - 63f
10:42 11 13 mph - 62f
10:36 10 13 mph - 62f
10:30 11 13 mph - 62f
10:24 10 13 mph - 60f
10:18 10 13 mph - 59f
10:12 11 13 mph - 58f
10:06 10 11 mph - 58f
10:00 9 10 mph - 59f
9:54 8 10 mph - 60f
9:48 7 8 mph - 61f
9:42 5 6 mph - 62f
9:36 5
mph
- 63f
9:30 3 6 mph - 62f
9:24 5 7 mph - 62f
9:18 6 7 mph - 61f
9:12 6 7 mph - 60f
9:06 2 5 mph - 62f
9:00  -  1 mph - 63f
8:54  -  1 mph - 62f
8:48 1 2 mph - 62f
8:42 2
mph
- 61f
8:36 2 5 mph - 61f
8:30 3
mph
- 61f
8:24 3 5 mph - 61f
8:18 2 5 mph - 61f
8:12 3 5 mph - 61f
8:06 3 5 mph - 60f
8:00 3 5 mph - 60f
7:54 3
mph
- 59f
7:48 3 5 mph - -
7:42 3 6 mph - -
7:36 3 6 mph - -
7:30 3 6 mph - 59f
7:24 3 5 mph - 59f
7:18 5 6 mph - 58f
7:12 6 7 mph - 57f
7:06 7 8 mph - 57f
7:00 7 8 mph - 57f
6:54 6 7 mph - 57f
6:48 6 7 mph - -
6:42 6 7 mph - -
6:36 6 7 mph - -
6:30 5 6 mph - 56f
6:24 6 8 mph - 56f
6:18 7 8 mph - 56f
6:12 7 9 mph - 56f
6:06 6 8 mph - 56f
6:00 5 7 mph - 56f
5:54 7 10 mph - 56f
5:48 8 10 mph - 56f
5:42 10 13 mph - 56f
5:36 10 13 mph - 56f
5:30 10 14 mph - 56f
5:24 10 14 mph - 56f
5:18 11 13 mph - 56f
5:12 11 14 mph - 56f
5:06 11 14 mph - 56f
5:00 14 17 mph - 56f
4:54 11 15 mph - 56f
4:48 10 14 mph - 56f
4:42 7 13 mph - 56f
4:36 13 14 mph - 56f
4:30 11 14 mph - 56f
4:24 11 14 mph - 56f
4:18 9 13 mph - 56f
4:12 9 11 mph - 57f
4:06 10 14 mph - 57f
4:00 10 14 mph - 57f
3:54 9 13 mph - 57f
3:48 9 11 mph - 57f
3:42 8 13 mph - 57f
3:36 7 9 mph - 57f
3:30 7 11 mph - 57f
3:24 6 10 mph - 57f
3:18 3 7 mph - 57f
3:12 8 10 mph - 57f
3:06 8 10 mph - 58f
2:54 11 15 mph - 58f
2:48 11 14 mph - 58f
2:42 14 17 mph - 58f
2:36 14 18 mph - 58f
2:30 11 15 mph - 58f
2:24 13 16 mph - 58f
2:18 14 18 mph - 58f
2:12 14 15 mph - 58f
2:06 14 16 mph - 58f
2:00 13 16 mph - 58f
1:54 15 17 mph - 58f
1:48 16 20 mph - 58f
1:42 14 17 mph - 58f
1:36 17 22 mph - 57f
1:30 17 21 mph - 57f
1:24 17 21 mph - 57f
1:18 16 20 mph - 57f
1:12 17 22 mph - 57f
1:06 17 23 mph - 57f
1:00 15 18 mph - 58f
12:54 15 21 mph - 58f
12:48 17 22 mph - 57f
12:42 16 21 mph - 57f
12:36 15 20 mph - 57f
12:30 15 20 mph - 57f
12:24 15 18 mph - 57f
12:18 15 20 mph - 57f
12:12 13 16 mph - 57f
12:06 14 17 mph - 57f
12:00 14 20 mph - 57f
Mi 04/27 11:54 13 16 mph - 57f
11:48 13 16 mph - 57f
11:42 14 18 mph - 57f
11:36 13 18 mph - 57f
11:30 14 18 mph - 57f
11:24 16 20 mph - 57f
11:18 17 22 mph - 57f
11:12 20 24 mph - 57f
11:06 18 22 mph - 57f
11:00 21 26 mph - 57f
10:54 20 24 mph - 57f
10:48 22 25 mph - 57f
10:42 21 25 mph - 57f
10:36 21 28 mph - 57f
10:30 20 26 mph - 57f
10:24 22 32 mph - 57f
10:18 23 29 mph - 57f
10:12 21 26 mph - 58f
10:06 22 29 mph - 58f
10:00 23 32 mph - 58f
9:54 21 28 mph - 58f
9:48 21 28 mph - 58f
9:42 23 29 mph - 58f
9:36 25 31 mph - 59f
9:30 22 30 mph - 59f
9:24 22 30 mph - 59f
9:18 17 25 mph - 59f
9:12 15 24 mph - 60f
9:06 17 28 mph - 60f
9:00 20 32 mph - 60f
8:54 18 29 mph - 60f
8:48  -  mph - 60f
8:42  -  mph - 60f
8:36  -  mph - 60f
8:30 21 28 mph - 60f
8:24 21 28 mph - 61f
8:18 17 25 mph - 61f
8:12 18 24 mph - 61f
8:06 15 24 mph - 61f
8:00  -  mph - 61f
7:54  -  mph - 62f
7:48  -  mph - 62f
7:42  -  mph - 62f
7:36  -  mph - 61f
7:18 11 14 mph - 62f
7:12 9 14 mph - 62f
7:06 9 14 mph - 63f
6:00  -  mph - 64f
5:54  -  mph - 64f
5:18 16 21 mph - -
5:12 17 22 mph - -
5:06 20 26 mph - -
4:18  -  mph - 62f
4:12  -  mph - 63f
4:06  -  mph - 63f
4:00  -  mph - 63f
3:54  -  mph - 64f
3:48  -  mph - 64f
3:42  -  mph - 63f
3:36  -  mph - 64f
3:18 14 18 mph - -
3:12 14 17 mph - -
3:06 15 20 mph - -
2:48  -  mph - 65f
2:42  -  mph - 65f
2:36  -  mph - 64f
2:30 15 20 mph - 64f
2:24 15 21 mph - 64f
2:18 16 21 mph - 65f
2:12 16 22 mph - 65f
2:06 17 22 mph - 64f
2:00 18 22 mph - 64f
1:54 16 21 mph - 64f
1:48 16 20 mph - 64f
1:42 16 20 mph - 65f
1:36 15 17 mph - 65f
1:30 14 15 mph - 64f
1:24 13 14 mph - 64f
1:18 13 16 mph - 63f
1:12 11 14 mph - 63f
1:06 13 14 mph - 63f
1:00 13 14 mph - 62f
12:54 13 14 mph - 62f
12:48 11 14 mph - 61f
12:42 11 13 mph - 61f
12:36 11 13 mph - 61f
12:30 13 14 mph - 61f
12:24 13 14 mph - 61f
12:18 13 14 mph - 61f
12:12 13 14 mph - 60f
12:06 13 14 mph - 60f
12:00 11 13 mph - 60f
11:54 10 11 mph - 61f
11:48 10 11 mph - 61f
11:42 9 11 mph - 61f
11:36 9 10 mph - 62f
11:30 9 10 mph - 62f
11:24 9 10 mph - 62f
11:18 9 11 mph - 62f
11:12 10
mph
- 62f
11:06 10 11 mph - 62f
11:00 10 11 mph - 62f
10:54 9 10 mph - 62f
10:48 9 10 mph - 62f
10:42 9 10 mph - 62f
10:36 9 10 mph - 62f
10:30 9 10 mph - 62f
10:24 10 11 mph - 62f
10:18 9 10 mph - 62f
10:12 8 9 mph - 62f
10:06 9
mph
- 62f
10:00 9 10 mph - 62f
9:54 9 10 mph - 62f
9:48 8 9 mph - 62f
9:36 7 8 mph - 62f
9:30 7 8 mph - 62f
9:24 7 9 mph - 62f
9:18 8 9 mph - 61f
9:12 8 10 mph - 61f
9:06 9 11 mph - 61f
9:00 7 9 mph - 62f
8:54 6 8 mph - 62f
8:48 6 8 mph - 62f
8:42 7 9 mph - 61f
8:36 6 8 mph - 61f
8:30 7 9 mph - 61f
8:24 6 8 mph - 60f
8:18 6 8 mph - 61f
8:12 5 7 mph - 61f
8:06 5 7 mph - 60f
8:00 6 8 mph - 60f
7:54 5 7 mph - 60f
7:48 5 6 mph - -
7:42 3 5 mph - -
7:36 3 5 mph - -
7:30 3 5 mph - 59f
7:24 3 6 mph - 59f
7:18 3 6 mph - 58f
7:12 5 6 mph - 58f
7:06 6 7 mph - 58f
7:00 5 7 mph - 58f
6:54 6 7 mph - 58f
6:48 6 8 mph - 58f
6:42 5 6 mph - 58f
6:36 5 6 mph - 58f
6:30 2 5 mph - 58f
6:24 3 5 mph - 58f
6:18 5 6 mph - 58f
6:12 2 3 mph - 58f
6:06 1 2 mph - 58f
6:00 1 2 mph - 58f
5:54 1 2 mph - 58f
5:48 2 3 mph - 58f
5:42 2 3 mph - 58f
5:36 3
mph
- 58f
5:30 3
mph
- 58f
5:24 2 5 mph - 58f
5:18 5 6 mph - 58f
5:12 5 6 mph - 59f
5:06 5
mph
- 59f
5:00 3 5 mph - 59f
4:54 3
mph
- 59f
4:48 2 3 mph - 59f
4:42 2 3 mph - 59f
4:36 2 3 mph - 59f
4:30 3 6 mph - 59f
4:24 5 6 mph - 59f
4:18 5 6 mph - 59f
4:12 5 6 mph - 59f
4:06 6 7 mph - 59f
4:00 6
mph
- 59f
3:54 5 6 mph - 59f
3:48 3 6 mph - 59f
3:42 3 5 mph - 59f
3:36 3 5 mph - 59f
3:30 5 6 mph - 59f
3:24 3 5 mph - 59f
3:18 3 6 mph - 59f
3:12 3 5 mph - 59f
3:06 3 5 mph - 59f
3:00 3 5 mph - 59f
2:54 3 5 mph - 59f
2:48 3
mph
- 59f
2:42 3 5 mph - 59f
2:36 3 5 mph - 59f
2:30 2 3 mph - 59f
2:24 2 3 mph - 59f
2:18  -  2 mph - 59f
2:12 1 3 mph - 59f
2:06 2 3 mph - 59f
2:00 2 5 mph - 59f
1:54 3 5 mph - 59f
1:48 5 6 mph - 59f
1:42 3 5 mph - 59f
1:36 3 5 mph - 59f
1:30 2 5 mph - 59f
1:24 2
mph
- 59f
1:18 2 3 mph - 60f
1:12 2 3 mph - 59f
1:06 2
mph
- 59f
1:00  -  2 mph - 58f
12:54  -  1 mph - 58f
12:48  -  2 mph - 58f
12:42 1 2 mph - 58f
12:36  -  1 mph - 58f
12:30 1 2 mph - 59f
12:24  -  2 mph - 59f
12:18  -  1 mph - 59f
12:12 1 2 mph - 59f
12:06 1
mph
- 59f
12:00 1 2 mph - 59f
Di 04/26 11:54  -  2 mph - 59f
11:48  -  2 mph - 59f
11:42 1 3 mph - 59f
11:36 2
mph
- 59f
11:30 3 5 mph - 59f
11:24 5
mph
- 59f
11:18 2 3 mph - 59f
11:12 2 3 mph - 59f
11:06 3
mph
- 59f
11:00 3 5 mph - 59f
10:54 5 6 mph - 59f
10:48 5 6 mph - -
10:42 6 7 mph - -
10:36 5 6 mph - -
10:30 5
mph
- 60f
10:24 5
mph
- 60f
10:18 6
mph
- 60f
10:12 6
mph
- 60f
10:06 3 5 mph - 60f
10:00 1 3 mph - 60f
9:54 2 3 mph - 60f
9:48 5 8 mph - 61f
9:42 7 8 mph - 61f
9:36 6 7 mph - 61f
9:30 8 9 mph - 61f
9:24 8 9 mph - 61f
9:18 9 10 mph - 62f
9:12 10 13 mph - 62f
9:06 9 14 mph - 61f
9:00 5 6 mph - 61f
8:54 5 8 mph - 61f
8:48 6 9 mph - 61f
8:42 7 10 mph - 62f
8:36 8 10 mph - 62f
8:30 7 8 mph - 62f
8:24 7 9 mph - 62f
8:18 8 11 mph - 62f
8:12 9 11 mph - 62f
8:06 9 13 mph - 61f
8:00 9 11 mph - 61f
7:54 10 13 mph - 61f
7:48 13 14 mph - 62f
7:42 11 13 mph - 62f
7:36 11 13 mph - 62f
7:30 11 14 mph - 63f
7:24 11 14 mph - 63f
7:18 10 13 mph - 64f
7:12 10 13 mph - 64f
7:06 10 13 mph - 65f
7:00 9 13 mph - -
6:54 10 15 mph - -
6:48  -  mph - 66f
6:42  -  mph - 66f
6:36  -  mph - 66f
6:30 10 13 mph - 66f
6:24 9 13 mph - 67f
6:18  -  mph - 67f
6:12  -  mph - 68f
6:06  -  mph - 69f
6:00 9 11 mph - 68f
5:54 8 10 mph - 68f
5:48  -  mph - 68f
5:42  -  mph - 68f
5:36  -  mph - 68f
5:30 8 11 mph - 69f
5:24 8 13 mph - 69f
5:18  -  mph - 69f
5:12  -  mph - 68f
5:06  -  mph - 67f
5:00 10 13 mph - 67f
4:54 10 14 mph - 67f
4:48  -  mph - 67f
4:42  -  mph - 67f
4:36  -  mph - 66f
4:30 14 16 mph - 65f
4:24 15 16 mph - 65f
4:18  -  mph - 65f
4:12  -  mph - 65f
4:06  -  mph - 64f
4:00 13 15 mph - 64f
3:54 13 14 mph - 64f
3:30 11 13 mph - 64f
3:24 11 13 mph - 64f
3:18 11 13 mph - 64f
3:12 10 11 mph - 64f
3:06 10 11 mph - 63f
2:54 10
mph
- 62f
2:30 8 10 mph - 62f
2:24 9 10 mph - 62f
2:18 7 8 mph - 62f
2:12 7 8 mph - 63f
2:06 7 9 mph - 63f
2:00 8
mph
- 63f
1:54 8
mph
- 63f
1:48 8
mph
- 63f
1:42 8 9 mph - 63f
1:36 8 10 mph - 63f
1:30 8 9 mph - 63f
1:24 8 9 mph - 62f
1:18 8
mph
- 62f
1:12 8
mph
- 62f
1:06 8 9 mph - 62f
1:00 8 9 mph - 62f
12:54 8 9 mph - 62f
12:48 9
mph
- 62f